{"data":{"norad_id":59756,"epoch":"2026-05-24T20:29:53.491776Z","epoch_age_seconds":80972,"freshness":"FRESH","line1":"1 59756U 24091D   26144.85409134  .00001572  00000+0  17835-4 0  9991","line2":"2 59756  53.1582 190.9652 0001287  86.1934 273.9231 15.69712139117470","mean_motion":15.69712139,"eccentricity":0.0001287,"inclination_deg":53.1582,"raan_deg":190.9652,"arg_perigee_deg":86.1934,"mean_anomaly_deg":273.9231,"bstar":1.7835e-5,"rev_number":11747,"period_min":91.736565209808,"perigee_km":358.85346715059,"apogee_km":360.58779170441,"semimajor_km":6737.8576294275,"source":"CELESTRAK","updated_at":"2026-05-25T13:38:19.056023Z"}}